| time (UTC) | temp C | wind direction | speed KPH | gust KPH | rain 1hr cm | rain 24hr cm | rain mn cm | humidity % | barometer mb |
| 20260507143010 | 23 | 319 | 0.0 | 0.0 | 0.00 | 0.00 | 0.00 | 32 | 1012.1 |
| 20260507141528 | 23 | 266 | 0.0 | 0.0 | 0.00 | 0.00 | 0.00 | 35 | 1012.1 |
| 20260507140021 | 21 | 266 | 0.0 | 0.0 | 0.00 | 0.00 | 0.00 | 39 | 1012.0 |
| 20260507134519 | 18 | 266 | 0.0 | 0.0 | 0.00 | 0.00 | 0.00 | 45 | 1011.9 |
| 20260507133018 | 16 | 266 | 0.0 | 0.0 | 0.00 | 0.00 | 0.00 | 47 | 1011.8 |
| 20260507131603 | 15 | 266 | 0.0 | 0.0 | 0.00 | 0.00 | 0.00 | 47 | 1011.7 |
| 20260507130024 | 16 | 266 | 0.0 | 0.0 | 0.00 | 0.00 | 0.00 | 45 | 1011.6 |
| 20260507124525 | 15 | 266 | 0.0 | 0.0 | 0.00 | 0.00 | 0.00 | 45 | 1011.6 |
| 20260507123017 | 15 | 266 | 0.0 | 0.0 | 0.00 | 0.00 | 0.00 | 45 | 1011.4 |
| 20260507121514 | 16 | 266 | 0.0 | 0.0 | 0.00 | 0.00 | 0.00 | 45 | 1011.3 |
| 20260507120117 | 16 | 266 | 0.0 | 0.0 | 0.00 | 0.00 | 0.00 | 45 | 1011.3 |
| 20260507114511 | 16 | 266 | 0.0 | 0.0 | 0.00 | 0.00 | 0.00 | 47 | 1011.3 |
| 20260507113034 | 16 | 266 | 0.0 | 0.0 | 0.00 | 0.00 | 0.00 | 47 | 1011.4 |
| 20260507111510 | 16 | 266 | 0.0 | 0.0 | 0.00 | 0.00 | 0.00 | 47 | 1011.5 |
| 20260507110028 | 16 | 266 | 0.0 | 0.0 | 0.00 | 0.00 | 0.00 | 46 | 1011.5 |
| 20260507104522 | 16 | 266 | 0.0 | 0.0 | 0.00 | 0.00 | 0.00 | 46 | 1011.7 |
| 20260507103018 | 16 | 266 | 0.0 | 0.0 | 0.00 | 0.00 | 0.00 | 48 | 1011.8 |
| 20260507101519 | 16 | 266 | 0.0 | 0.0 | 0.00 | 0.00 | 0.00 | 45 | 1012.0 |
| 20260507100020 | 16 | 266 | 0.0 | 0.0 | 0.00 | 0.00 | 0.00 | 45 | 1012.0 |
| 20260507094512 | 17 | 266 | 0.0 | 0.0 | 0.00 | 0.00 | 0.00 | 43 | 1012.0 |
| 20260507093032 | 16 | 266 | 0.0 | 0.0 | 0.00 | 0.00 | 0.00 | 44 | 1012.1 |
| 20260507091512 | 16 | 266 | 0.0 | 0.0 | 0.00 | 0.00 | 0.00 | 44 | 1012.1 |
| 20260507090030 | 17 | 266 | 0.0 | 0.0 | 0.00 | 0.00 | 0.00 | 43 | 1012.0 |
| 20260507084522 | 18 | 266 | 0.0 | 0.0 | 0.00 | 0.00 | 0.00 | 42 | 1012.2 |
| 20260507083034 | 18 | 266 | 0.0 | 0.0 | 0.00 | 0.00 | 0.00 | 41 | 1012.4 |
| 20260507081515 | 19 | 266 | 0.0 | 0.0 | 0.00 | 0.00 | 0.00 | 38 | 1012.3 |
| 20260507080010 | 20 | 266 | 0.0 | 0.0 | 0.00 | 0.00 | 0.00 | 33 | 1012.3 |
| 20260507074530 | 20 | 266 | 0.0 | 0.0 | 0.00 | 0.00 | 0.00 | 31 | 1012.4 |
| 20260507073024 | 20 | 248 | 0.0 | 0.0 | 0.00 | 0.00 | 0.00 | 31 | 1012.4 |
| 20260507071533 | 20 | 248 | 0.0 | 0.0 | 0.00 | 0.00 | 0.00 | 31 | 1012.3 |
| 20260507070021 | 20 | 248 | 0.0 | 0.0 | 0.00 | 0.00 | 0.00 | 34 | 1012.3 |
| 20260507064522 | 20 | 248 | 0.0 | 0.0 | 0.00 | 0.00 | 0.00 | 33 | 1012.3 |
| 20260507063021 | 20 | 248 | 0.0 | 0.0 | 0.00 | 0.00 | 0.00 | 33 | 1012.3 |
| 20260507061514 | 20 | 248 | 0.0 | 0.0 | 0.00 | 0.00 | 0.00 | 33 | 1012.3 |
| 20260507060019 | 21 | 248 | 0.0 | 0.0 | 0.00 | 0.00 | 0.00 | 31 | 1012.3 |
| 20260507054512 | 22 | 248 | 0.0 | 0.0 | 0.00 | 0.00 | 0.00 | 29 | 1012.3 |
| 20260507053028 | 22 | 233 | 0.0 | 0.0 | 0.00 | 0.00 | 0.00 | 29 | 1012.2 |
| 20260507051509 | 22 | 233 | 0.0 | 0.0 | 0.00 | 0.00 | 0.00 | 29 | 1012.2 |
| 20260507050028 | 22 | 233 | 0.0 | 0.0 | 0.00 | 0.00 | 0.00 | 29 | 1012.1 |
| 20260507044526 | 23 | 233 | 0.0 | 0.0 | 0.00 | 0.00 | 0.00 | 27 | 1012.1 |
| 20260507043033 | 23 | 220 | 0.0 | 0.0 | 0.00 | 0.00 | 0.00 | 27 | 1012.0 |
| 20260507041525 | 22 | 228 | 0.0 | 0.0 | 0.00 | 0.00 | 0.00 | 29 | 1011.8 |
| 20260507040019 | 23 | 228 | 0.0 | 0.0 | 0.00 | 0.00 | 0.00 | 28 | 1011.5 |
| 20260507034518 | 24 | 228 | 0.0 | 0.0 | 0.00 | 0.00 | 0.00 | 26 | 1011.4 |
| 20260507033021 | 25 | 228 | 0.0 | 0.0 | 0.00 | 0.00 | 0.00 | 25 | 1011.3 |
| 20260507031515 | 25 | 214 | 0.0 | 1.6 | 0.00 | 0.00 | 0.00 | 24 | 1011.0 |
| 20260507030013 | 26 | 203 | 0.0 | 3.2 | 0.00 | 0.00 | 0.00 | 24 | 1010.8 |
| 20260507024515 | 26 | 214 | 0.0 | 4.8 | 0.00 | 0.00 | 0.00 | 24 | 1010.6 |
| 20260507023029 | 26 | 252 | 0.0 | 3.2 | 0.00 | 0.00 | 0.00 | 24 | 1010.4 |
| 20260507021524 | 26 | 238 | 0.0 | 3.2 | 0.00 | 0.00 | 0.00 | 23 | 1010.4 |
| 20260507020019 | 27 | 289 | 0.0 | 6.4 | 0.00 | 0.00 | 0.00 | 22 | 1010.3 |
| 20260507014520 | 28 | 229 | 0.0 | 6.4 | 0.00 | 0.00 | 0.00 | 22 | 1010.3 |
| 20260507013019 | 28 | 285 | 1.6 | 6.4 | 0.00 | 0.00 | 0.00 | 22 | 1010.1 |
| 20260507011518 | 29 | 232 | 1.6 | 6.4 | 0.00 | 0.00 | 0.00 | 21 | 1010.1 |
| 20260507010013 | 28 | 323 | 0.0 | 8.0 | 0.00 | 0.00 | 0.00 | 21 | 1010.2 |
| 20260507004517 | 29 | 280 | 0.0 | 8.0 | 0.00 | 0.00 | 0.00 | 21 | 1010.2 |
| 20260507003027 | 29 | 253 | 3.2 | 12.9 | 0.00 | 0.00 | 0.00 | 21 | 1010.2 |
| 20260507001529 | 29 | 205 | 0.0 | 14.5 | 0.00 | 0.00 | 0.00 | 21 | 1010.1 |
| 20260507000023 | 30 | 217 | 0.0 | 9.7 | 0.00 | 0.00 | 0.00 | 20 | 1010.2 |
| 20260506234530 | 28 | 195 | 1.6 | 11.3 | 0.00 | 0.00 | 0.00 | 21 | 1010.3 |
| 20260506233016 | 29 | 289 | 1.6 | 6.4 | 0.00 | 0.00 | 0.00 | 21 | 1010.3 |
| 20260506231524 | 29 | 303 | 0.0 | 6.4 | 0.00 | 0.00 | 0.00 | 21 | 1010.4 |
| 20260506230018 | 29 | 331 | 0.0 | 6.4 | 0.00 | 0.00 | 0.00 | 22 | 1010.7 |
| 20260506224523 | 29 | 313 | 0.0 | 8.0 | 0.00 | 0.00 | 0.00 | 21 | 1010.8 |
| 20260506223011 | 29 | 223 | 3.2 | 11.3 | 0.00 | 0.00 | 0.00 | 21 | 1011.0 |
| 20260506221527 | 28 | 118 | 0.0 | 9.7 | 0.00 | 0.00 | 0.00 | 21 | 1011.2 |
| 20260506220022 | 29 | 243 | 1.6 | 9.7 | 0.00 | 0.00 | 0.00 | 21 | 1011.3 |
| 20260506214522 | 28 | 311 | 0.0 | 14.5 | 0.00 | 0.00 | 0.00 | 21 | 1011.6 |
| 20260506213021 | 28 | 251 | 4.8 | 12.9 | 0.00 | 0.00 | 0.00 | 21 | 1012.0 |
| 20260506211516 | 28 | 200 | 1.6 | 6.4 | 0.00 | 0.00 | 0.00 | 22 | 1012.2 |
| 20260506210012 | 27 | 151 | 1.6 | 9.7 | 0.00 | 0.00 | 0.00 | 22 | 1012.5 |
| 20260506204534 | 28 | 297 | 1.6 | 8.0 | 0.00 | 0.00 | 0.00 | 22 | 1012.7 |
| 20260506203030 | 27 | 1 | 6.4 | 14.5 | 0.00 | 0.00 | 0.00 | 22 | 1013.0 |
| 20260506201522 | 27 | 338 | 4.8 | 11.3 | 0.00 | 0.00 | 0.00 | 23 | 1013.1 |
| 20260506200023 | 27 | 236 | 3.2 | 11.3 | 0.00 | 0.00 | 0.00 | 23 | 1013.2 |
| 20260506194513 | 27 | 238 | 1.6 | 9.7 | 0.00 | 0.00 | 0.00 | 24 | 1013.3 |
| 20260506193025 | 27 | 312 | 1.6 | 14.5 | 0.00 | 0.00 | 0.00 | 24 | 1013.6 |
| 20260506191520 | 27 | 239 | 4.8 | 9.7 | 0.00 | 0.00 | 0.00 | 24 | 1013.7 |
| 20260506190031 | 27 | 135 | 0.0 | 3.2 | 0.00 | 0.00 | 0.00 | 24 | 1013.9 |
| 20260506184514 | 26 | 219 | 3.2 | 9.7 | 0.00 | 0.00 | 0.00 | 24 | 1014.0 |
| 20260506183028 | 26 | 252 | 0.0 | 6.4 | 0.00 | 0.00 | 0.00 | 26 | 1014.3 |
| 20260506181533 | 26 | 284 | 0.0 | 9.7 | 0.00 | 0.00 | 0.00 | 27 | 1014.5 |
| 20260506180025 | 25 | 212 | 1.6 | 9.7 | 0.00 | 0.00 | 0.00 | 29 | 1014.6 |
| 20260506174520 | 25 | 15 | 3.2 | 8.0 | 0.00 | 0.00 | 0.00 | 29 | 1014.7 |
| 20260506173019 | 25 | 108 | 0.0 | 6.4 | 0.00 | 0.00 | 0.00 | 30 | 1014.7 |
| 20260506171519 | 25 | 298 | 1.6 | 6.4 | 0.00 | 0.00 | 0.00 | 29 | 1014.7 |
| 20260506170014 | 23 | 311 | 0.0 | 8.0 | 0.00 | 0.00 | 0.00 | 32 | 1014.7 |
| 20260506164514 | 23 | 252 | 1.6 | 11.3 | 0.00 | 0.00 | 0.00 | 31 | 1014.7 |
| 20260506163017 | 23 | 209 | 0.0 | 8.0 | 0.00 | 0.00 | 0.00 | 32 | 1014.6 |
| 20260506161528 | 22 | 217 | 0.0 | 4.8 | 0.00 | 0.00 | 0.00 | 33 | 1014.5 |
| 20260506160022 | 22 | 244 | 0.0 | 4.8 | 0.00 | 0.00 | 0.00 | 33 | 1014.4 |
| 20260506154531 | 21 | 325 | 0.0 | 8.0 | 0.00 | 0.00 | 0.00 | 35 | 1014.5 |
| 20260506153020 | 22 | 198 | 0.0 | 3.2 | 0.00 | 0.00 | 0.00 | 35 | 1014.5 |
| 20260506151514 | 21 | 180 | 0.0 | 4.8 | 0.00 | 0.00 | 0.00 | 36 | 1014.6 |
| 20260506150013 | 20 | 349 | 0.0 | 4.8 | 0.00 | 0.00 | 0.00 | 38 | 1014.6 |
| 20260506144509 | 20 | 319 | 0.0 | 1.6 | 0.00 | 0.00 | 0.00 | 38 | 1014.6 |